Theta_e
326 325 325 324 323 322 322 320 318 317 317 316 315 315 314 311 309 307 306 306 306 306 305 305 305 304 304 304 303 303 303 303 302 302 301 300 299 298 298 297 297 296
324 324 323 322 321 320 319 317 315 314 315 314 312 310 308 306 305 305 305 305 304 303 303 302 302 301 300 300 299 299 299 298 298 297 297 296 295 295 295 295 294 294
322 322 321 320 319 318 317 315 314 313 312 310 308 306 305 304 304 304 303 302 301 301 300 299 298 297 297 296 296 296 295 295 295 294 294 294 293 293 293 293 293 293
320 320 319 318 317 315 314 313 312 310 308 306 305 304 304 303 302 301 300 300 298 297 297 296 295 295 295 294 294 294 293 293 293 292 292 292 292 292 292 291 291 292
319 318 317 315 314 312 311 310 308 306 304 304 303 303 302 301 299 299 297 296 296 295 295 294 294 293 293 293 293 292 292 292 292 291 291 291 291 291 290 290 290 290
316 315 314 313 311 309 308 306 305 304 304 303 302 300 299 298 297 296 295 295 294 294 294 293 293 293 292 292 292 292 291 291 291 291 290 290 290 290 290 290 290 290
313 313 311 310 308 306 305 304 303 303 302 300 299 297 296 295 295 295 294 294 293 293 293 293 292 292 292 292 291 291 291 291 290 290 290 290 290 290 290 289 289 290
311 309 308 306 305 304 303 302 302 300 298 297 296 295 295 295 294 294 293 293 293 293 292 292 292 292 292 291 291 291 290 290 290 290 290 290 289 289 289 289 289 289
307 305 304 304 303 303 302 300 298 297 296 295 295 294 294 294 293 293 293 292 292 292 292 292 291 291 291 291 290 290 290 290 289 289 289 289 289 289 289 289 289 288
303 303 303 302 301 300 298 297 296 295 294 294 294 293 293 293 292 292 292 292 292 292 291 291 291 290 290 290 290 289 289 289 289 289 288 288 288 288 288 288 288 288
302 302 301 300 298 297 295 295 294 294 293 293 293 292 292 292 292 292 292 291 291 291 291 291 290 290 289 289 289 289 288 288 288 288 288 288 288 288 287 287 287 287
300 299 298 297 295 295 294 294 293 293 293 292 292 292 292 292 291 291 291 291 291 291 290 290 289 289 289 288 288 288 288 288 287 287 287 287 287 287 287 287 287 287
298 297 296 295 294 294 293 293 293 292 292 292 292 292 291 291 291 291 291 291 290 290 290 289 289 288 288 288 287 287 287 287 287 287 287 287 287 287 287 287 287 287
296 295 294 294 294 293 293 293 292 292 292 292 291 291 291 291 291 290 290 290 290 290 289 289 288 288 287 287 287 287 287 287 287 287 287 287 287 287 287 287 286 286
294 293 293 293 293 292 292 292 292 291 291 291 291 291 291 290 290 290 290 290 289 289 288 288 287 287 287 287 287 287 287 287 287 286 286 286 286 287 286 286 286 286
293 293 293 292 292 292 292 291 291 291 291 290 290 290 290 290 290 289 290 289 289 289 288 288 287 287 287 286 286 286 286 286 286 286 286 286 286 286 286 286 285 285
292 292 292 292 291 291 291 291 291 290 290 290 290 289 289 289 289 289 289 289 289 288 288 287 287 287 286 286 286 286 286 286 286 286 285 285 285 285 285 285 285 285
292 292 291 291 291 291 290 290 290 290 289 289 289 289 289 289 289 289 289 288 288 288 287 287 287 286 286 286 286 286 285 285 285 285 285 285 284 284 284 284 284 284
291 291 291 290 290 290 290 290 289 289 289 289 289 289 289 289 289 288 288 288 288 287 287 287 286 286 286 286 285 285 285 285 285 285 285 284 284 284 283 283 283 283
291 290 290 290 290 290 290 289 289 289 289 289 289 289 289 288 288 288 287 287 287 287 287 286 286 286 285 285 285 285 285 285 285 285 284 284 283 283 283 282 282 282
290 290 290 290 289 289 289 289 289 289 289 288 288 288 288 288 287 287 287 287 287 286 286 286 285 285 285 284 284 284 284 284 284 284 284 283 283 282 282 282 282 282
290 290 290 289 289 289 289 288 288 288 288 288 288 288 288 287 287 287 287 286 286 286 286 285 285 284 284 284 284 284 284 284 284 284 283 283 282 282 281 281 281 281
289 289 289 289 289 288 288 288 288 288 288 288 287 287 287 287 287 286 286 286 286 285 285 285 284 284 283 283 283 283 283 283 283 283 283 282 282 281 281 281 281 281
289 289 289 289 288 288 288 288 288 288 287 287 287 287 287 287 286 286 286 286 285 285 284 284 283 283 283 283 283 282 282 282 282 281 281 281 281 281 281 280 280 280
289 289 288 288 288 288 288 288 287 287 287 287 287 287 286 286 286 285 285 285 284 283 283 282 282 282 282 282 282 281 281 281 280 280 280 280 280 281 280 280 279 279
289 288 288 288 288 288 287 287 287 287 287 287 286 286 286 286 285 285 285 284 283 282 281 281 282 282 282 281 281 280 280 279 279 279 279 279 279 279 279 279 278 278
Wind_Speed
19 19 19 16 14 14 13 13 12 11 11 10 9 8 6 4 3 3 3 4 5 6 6 6 7 7 7 7 7 7 7 7 8 7 7 7 8 8 8 9 10 10
19 19 18 17 16 15 13 13 13 12 12 10 9 8 7 7 8 9 9 10 10 10 10 10 10 10 9 10 9 9 9 9 9 8 8 8 8 9 9 10 11 11
19 18 18 17 16 16 15 14 13 12 12 11 11 11 12 13 13 13 13 12 12 11 11 10 10 9 9 9 8 8 8 8 9 9 9 9 9 9 9 10 10 11
20 19 19 18 17 17 16 16 15 14 14 15 15 16 16 15 14 14 13 12 11 11 10 9 9 8 8 8 7 8 8 9 9 9 9 9 9 9 10 10 11 11
20 19 19 18 18 18 17 17 17 17 18 19 18 17 16 15 14 13 12 11 10 9 9 8 8 8 7 7 8 8 8 9 9 9 9 9 9 10 10 11 12 13
21 20 20 20 19 19 19 20 20 21 20 20 19 17 16 15 13 12 11 10 9 8 8 7 7 8 8 8 8 8 8 8 8 9 10 10 11 11 11 12 14 15
23 22 21 20 20 21 22 23 22 21 21 20 19 17 15 14 12 11 10 9 8 8 7 7 7 7 7 7 7 7 7 7 8 9 11 12 13 13 14 15 16 18
23 23 22 23 24 24 24 24 23 21 20 19 18 16 14 12 11 10 10 9 8 8 7 7 7 6 6 6 6 7 7 8 10 11 13 14 15 16 17 18 19 20
25 25 26 26 27 26 25 24 23 21 19 17 16 15 13 11 11 10 9 8 8 7 7 7 7 7 7 7 8 8 9 10 11 13 14 16 17 18 19 19 20 22
28 28 29 28 28 27 25 24 22 20 18 16 15 13 12 11 11 10 9 8 7 7 7 7 7 7 8 8 9 10 11 12 13 14 15 16 17 18 19 20 21 22
31 30 30 29 28 27 25 23 21 19 17 15 14 13 12 11 10 9 8 8 8 8 8 8 8 9 9 9 9 10 11 12 13 14 15 16 17 19 20 21 22 23
32 31 30 29 28 26 24 22 20 18 16 15 14 13 12 11 10 9 9 8 8 8 8 9 9 10 10 10 10 10 11 12 13 15 16 17 18 20 21 22 23 25
32 31 29 28 26 24 22 21 19 18 16 15 14 13 12 11 10 10 9 9 9 8 9 9 9 10 10 10 11 11 13 14 15 17 18 19 20 22 23 24 25 26
31 30 28 26 25 23 22 20 19 18 16 15 14 13 12 11 10 10 9 9 8 8 9 9 10 10 10 11 12 13 14 15 17 18 20 21 22 23 25 25 27 28
31 29 27 25 24 23 21 20 19 18 16 15 14 13 12 11 10 9 9 8 8 8 8 9 9 10 11 12 13 14 15 17 18 20 21 23 25 26 27 28 29 30
30 28 27 25 24 22 21 20 19 17 16 15 14 13 12 11 10 9 8 7 7 7 8 9 9 10 11 12 13 15 17 18 20 21 23 24 26 28 29 30 31 31
30 28 26 25 23 22 21 20 18 17 16 15 14 13 11 10 9 8 7 6 6 7 8 8 9 10 11 13 15 17 18 20 21 23 24 25 26 28 29 31 33 33
29 28 26 25 23 22 20 19 18 17 16 14 13 12 10 9 8 6 6 6 6 7 7 8 9 11 13 15 17 19 20 21 23 24 25 26 27 28 29 31 33 34
29 28 26 25 23 21 20 19 18 17 15 14 12 11 10 9 7 6 5 5 5 6 7 9 11 13 15 17 19 20 21 22 23 24 25 26 27 28 29 30 31 33
29 27 26 24 22 21 19 19 18 16 14 13 11 10 9 8 7 5 4 5 5 6 8 10 13 14 16 18 19 21 22 22 24 25 26 27 28 28 28 29 29 30
29 27 26 24 22 21 19 18 17 15 13 12 10 9 8 7 6 5 4 5 6 7 9 11 14 16 17 18 19 21 22 24 25 27 28 29 28 28 28 28 28 29
28 27 25 24 23 21 20 18 16 14 12 11 10 9 7 6 5 4 4 5 7 8 10 12 14 16 17 18 20 21 23 25 26 28 30 31 30 29 28 27 27 28
28 26 25 24 23 21 19 17 15 13 12 10 9 8 6 5 4 4 4 6 7 9 11 13 14 16 17 19 20 22 24 26 28 29 31 32 32 31 29 28 27 26
27 26 25 24 22 20 18 16 14 13 11 9 8 6 5 5 4 4 4 6 8 9 11 13 14 16 17 19 20 22 24 25 27 30 31 32 34 35 33 30 28 27
27 25 24 23 21 19 17 15 14 12 11 9 7 6 4 3 4 4 5 7 9 10 11 13 14 16 17 19 21 22 23 24 25 28 31 32 33 36 37 35 32 30
26 25 23 22 20 18 17 15 13 12 10 8 6 5 4 3 3 4 5 7 9 10 11 13 15 17 18 19 21 22 22 22 24 26 29 31 32 33 36 39 38 35
Wind_Direction
188 187 186 186 188 194 199 200 194 184 179 181 184 183 182 181 165 144 129 117 112 106 100 96 91 88 86 82 79 75 71 67 63 57 49 43 37 31 24 17 14 10
181 184 188 190 190 191 192 189 181 176 174 174 173 164 150 139 131 126 122 116 114 109 102 98 93 89 85 82 80 78 76 72 67 59 51 45 37 28 21 16 13 8
180 185 189 188 186 184 180 177 175 174 170 160 150 142 134 130 127 123 119 115 111 106 99 94 89 85 80 77 74 70 68 63 58 51 42 37 31 24 18 12 9 5
184 186 186 183 181 179 175 173 168 162 156 146 138 135 131 128 125 121 117 113 108 103 98 94 87 81 76 72 65 58 55 51 48 45 41 36 29 22 17 8 4 1
183 181 179 178 176 174 171 166 157 149 145 139 135 132 129 127 124 120 116 112 108 103 99 93 84 77 70 65 58 53 50 48 44 39 35 32 26 18 10 2 358 356
174 173 173 173 171 168 163 155 148 144 141 137 134 132 130 129 125 121 117 111 106 101 93 86 77 72 67 61 55 49 44 39 34 30 25 22 20 14 5 358 354 353
168 169 169 168 164 160 154 147 144 143 139 137 135 132 131 130 126 120 115 108 103 98 89 83 75 69 64 57 51 42 36 30 23 23 20 16 13 9 3 357 352 351
166 166 165 161 156 153 148 144 143 141 139 139 137 133 132 129 123 117 111 106 102 95 87 80 69 62 56 49 45 37 30 25 18 15 13 9 6 3 360 356 351 348
162 160 158 155 152 149 146 143 142 140 140 141 137 132 130 126 119 114 111 107 103 95 86 78 67 59 52 41 36 31 24 19 14 9 7 3 359 358 355 352 348 345
156 154 153 152 149 147 145 143 141 140 141 139 134 131 128 124 119 115 113 108 101 91 81 74 65 56 48 39 31 25 18 14 9 4 2 357 354 353 350 347 344 341
153 152 152 151 149 147 145 143 142 141 140 136 133 132 127 124 121 116 111 102 91 81 72 64 55 46 40 34 27 20 13 8 4 1 358 355 351 349 346 343 339 337
153 153 153 151 149 147 145 144 142 141 140 137 135 133 128 124 119 112 102 93 83 73 63 53 44 37 32 27 20 14 10 4 360 358 353 351 349 346 345 341 338 336
154 154 154 151 149 147 146 145 144 143 143 141 137 134 129 123 115 106 97 87 76 65 56 47 39 33 25 20 15 8 6 2 357 355 352 349 348 345 343 341 337 335
155 154 153 151 150 148 148 147 147 147 146 142 138 134 127 120 112 103 93 83 72 60 52 43 35 28 19 12 9 4 1 359 355 353 350 346 345 343 341 340 337 335
155 155 154 153 152 150 150 150 149 148 145 140 136 131 124 117 109 100 90 80 70 59 50 40 30 23 15 6 3 359 356 356 354 351 348 344 342 341 339 338 338 335
157 156 155 154 154 153 152 151 150 147 143 139 133 127 121 114 105 96 87 76 66 56 45 37 26 16 11 3 359 357 354 353 352 349 347 344 340 339 338 338 338 336
158 157 157 156 156 155 153 151 150 146 141 137 132 125 120 112 104 93 83 70 55 46 37 28 19 9 5 1 358 358 355 353 351 347 344 343 341 339 338 337 336 335
160 159 158 159 158 156 154 151 149 145 141 138 133 127 121 112 103 91 79 64 48 41 30 18 11 4 1 359 357 357 355 352 349 345 342 342 342 340 338 338 336 335
162 161 160 160 159 156 154 151 149 147 143 140 134 127 120 111 102 89 74 58 44 40 26 12 6 3 1 360 357 355 353 350 345 342 341 341 342 341 340 338 337 335
164 164 162 161 159 156 155 152 151 149 145 140 134 126 119 111 103 89 71 52 39 33 23 10 4 2 1 359 356 353 350 346 343 341 342 342 342 342 341 339 338 336
167 166 164 161 159 157 156 155 153 150 145 140 133 127 120 112 104 88 64 44 32 25 20 12 5 1 1 359 356 353 348 344 343 342 342 343 342 342 341 340 339 337
169 168 165 162 161 159 158 157 154 150 146 140 134 129 120 112 101 78 56 39 25 16 13 12 6 1 0 360 356 353 348 345 344 344 343 343 342 342 341 340 340 339
171 170 167 163 162 161 159 157 154 151 148 143 137 132 123 113 94 60 45 32 23 12 7 8 7 2 360 359 357 354 350 348 346 345 344 342 341 341 340 339 339 338
172 171 169 165 163 162 160 158 156 155 152 145 141 137 127 114 93 58 32 23 21 16 8 6 6 4 1 0 360 357 353 351 349 346 344 342 340 339 337 336 335 335
172 171 170 166 163 162 161 161 160 157 153 148 144 140 130 112 89 64 30 18 21 21 15 10 7 6 5 3 2 2 358 354 351 348 345 342 340 337 334 333 332 333
171 171 169 166 165 164 163 163 163 160 156 152 148 143 134 111 72 55 30 16 22 26 20 14 9 7 7 6 4 4 2 356 352 351 346 340 337 334 331 330 331 331